User: anonymous   Login
Location: Platte
(43.3870°N, 98.8440°W)
Time: 22:12:10
(UTC-05:00)
Language:

Landsat 7 - Orbit

View from above orbital plane
View from above orbital plane
View from above satellite
View from above satellite

Ground track
Ground track

The orbit data is extracted from the following two-line orbital elements,

1 25682U 99020A   16274.76111310 -.00000167  00000-0 -27051-4 0  9998
2 25682  98.2046 343.6793 0001350  75.8694 284.2614 14.57109080928817
Epoch (UTC): 30 September 2016 18:16:00
Eccentricity: 0.0001350
inclination: 98.2046°
perigee height: 701 km
apogee height: 703 km
right ascension of ascending node: 343.6793°
argument of perigee: 75.8694°
revolutions per day: 14.57109080
mean anomaly at epoch: 284.2614°
orbit number at epoch: 92881

The dashed part of the orbit path shows where the satellite is in the earth's shadow,  

DLR